Regional Weather Roundup
Issued by NWS

Home | Current Version | Previous Version | Text Only | Print | Product List | Glossary Off
Versions: 1 2 3 4 5 6 7 8 9 10 11 12 13 14 15 16 17 18 19 20 21 22 23 24 25 26 27 28 29 30 31 32 33 34 35 36 37 38 39 40 41 42 43 44 45 46 47 48 49 50

000
ASUS43 KBIS 291820
RWRND

NORTH DAKOTA REGIONAL WEATHER ROUNDUP
NATIONAL WEATHER SERVICE BISMARCK ND
100 PM CDT TUE JUL 29 2014

NOTE: "FAIR" INDICATES FEW OR NO CLOUDS BELOW 12,000 FEET WITH NO
SIGNIFICANT WEATHER AND/OR OBSTRUCTIONS TO VISIBILITY.


NDZ001>003-009>011-017-291900-
NORTHWEST NORTH DAKOTA

CITY           SKY/WX    TMP DP  RH WIND       PRES   REMARKS
WILLISTON      SUNNY     81  55  40 E7        30.19F
6HR MIN TEMP:  54; 6HR MAX TEMP:  81;

MINOT          PTSUNNY   76  56  49 N3        30.19F
MINOT AFB      PTSUNNY   74  58  56 VRB2      30.19S
$$

NDZ018>021-031>035-040>046-291900-
SOUTHWEST NORTH DAKOTA

CITY           SKY/WX    TMP DP  RH WIND       PRES   REMARKS
BISMARCK       SUNNY     76  53  44 SE5       30.21F
6HR MIN TEMP:  51; 6HR MAX TEMP:  77;

DICKINSON      MOSUNNY   78  55  44 SE8       30.21F
GARRISON         N/A     76  57  51 SE5       30.21F
6HR MIN TEMP:  56; 6HR MAX TEMP:  76;

HETTINGER ARPT MOSUNNY   79  48  33 VRB3      30.23F
$$

NDZ004>008-012>016-024-026-027-054-291900-
NORTHEAST NORTH DAKOTA

CITY           SKY/WX    TMP DP  RH WIND       PRES   REMARKS
GRAND FORKS    MOSUNNY   76  55  48 NE8       30.15F
GRND FRKS AFB  MOSUNNY   75  55  48 N8        30.17F
DEVILS LAKE    MOSUNNY   72  54  53 N8        30.18S
$$

NDZ022-023-025-028>030-036>039-047>053-291900-
SOUTHEAST NORTH DAKOTA

CITY           SKY/WX    TMP DP  RH WIND       PRES   REMARKS
FARGO          MOSUNNY   77  54  44 N10       30.16F
6HR MIN TEMP:  54; 6HR MAX TEMP:  77;

JAMESTOWN      SUNNY     75  51  43 VRB7      30.19F
$$




USA.gov is the U.S. government's official web portal to all federal, state and local government web resources and services.